Weather History for Charlevoix, MI

Change the Weather History Date:

Sunday, March 10, 2013

  Actual Average Record
Temperature  
Mean Temperature 36 °F -  
Max Temperature 39 °F 32 °F 48 °F (2012)
Min Temperature 34 °F 16 °F -5 °F (2008)
Degree Days  
Heating Degree Days 28    
Moisture  
Dew Point 36 °F    
Average Humidity 97    
Maximum Humidity 100    
Minimum Humidity 86    
Precipitation  
Precipitation 0.00 in - - ()
Sea Level Pressure  
Sea Level Pressure 29.87 in    
Wind  
Wind Speed 8 mph (ESE)    
Max Wind Speed 13 mph    
Max Gust Speed -    
Visibility 5 miles    
Events Fog , Rain    
Averages and records for this station are not official NWS values.
T = Trace of Precipitation, MM = Missing Value Source: NWS Daily Summary

Daily Weather History Graph

Daily Weather History Graph

Search for Another Location

Airport:

Trip Planner

Search our weather history database for the weather conditions in past years. The results will help you decide how hot, cold, wet, or windy it might be!

Date:

Astronomy

Mar. 10, 2013 Rise Set
Actual Time 8:02 AM EDT 7:40 PM EDT
Civil Twilight 7:33 AM EDT 8:10 PM EDT
Nautical Twilight 6:58 AM EDT 8:44 PM EDT
Astronomical Twilight 6:24 AM EDT 9:19 PM EDT
Moon 7:03 AM EDT (3/10) 6:47 PM EDT (3/10)
Length of Visible Light 12h 37m
Length of Day
11h 38m
Waning Crescent, 2% of the Moon is Illuminated
Mar 10
Waning Crescent
Mar 11
New
Mar 19
First Quarter
Mar 27
Full
Apr 3
Last Quarter

Hourly Weather History & Observations

Time (EDT) Temp. Windchill Dew Point Humidity Pressure Visibility Wind Dir Wind Speed Gust Speed Precip Events Conditions
12:15 AM 35.6 °F 28.0 °F 34.7 °F 97% 29.94 in 7.0 mi SE 10.4 mph - N/A Rain Light Rain
12:35 AM 35.8 °F 28.8 °F 35.1 °F 97% 29.95 in 7.0 mi SE 9.2 mph - N/A   Overcast
12:54 AM 35.8 °F 30.1 °F 35.1 °F 97% 29.94 in 7.0 mi SE 6.9 mph - N/A Rain Light Rain
1:15 AM 35.6 °F 28.0 °F 34.9 °F 97% 29.92 in 7.0 mi SE 10.4 mph - N/A   Overcast
1:35 AM 36.0 °F 28.0 °F 34.9 °F 96% 29.91 in 10.0 mi SE 11.5 mph - N/A   Overcast
1:54 AM 36.1 °F 29.3 °F 35.1 °F 96% 29.91 in 10.0 mi SE 9.2 mph - N/A   Overcast
3:15 AM 36.5 °F 30.3 °F 35.1 °F 95% 29.90 in 10.0 mi SE 8.1 mph - N/A   Overcast
3:34 AM 36.5 °F 31.0 °F 35.1 °F 95% 29.88 in 10.0 mi SE 6.9 mph - N/A   Light Drizzle
3:54 AM 37.4 °F 31.4 °F 35.6 °F 93% 29.87 in 10.0 mi SSE 8.1 mph - N/A   Overcast
4:15 AM 38.3 °F 32.5 °F 34.7 °F 87% 29.86 in 10.0 mi SSE 8.1 mph - N/A   Overcast
4:34 AM 38.3 °F 31.9 °F 34.7 °F 87% 29.86 in 10.0 mi SSE 9.2 mph - N/A   Overcast
4:54 AM 38.3 °F 31.9 °F 34.9 °F 87% 29.85 in 10.0 mi SSE 9.2 mph - N/A   Overcast
5:15 AM 38.7 °F 32.9 °F 35.2 °F 87% 29.84 in 10.0 mi SSE 8.1 mph - N/A Rain Light Rain
5:34 AM 38.7 °F 31.8 °F 35.1 °F 87% 29.84 in 10.0 mi SSE 10.4 mph - N/A Rain Light Rain
5:54 AM 38.7 °F 31.8 °F 34.7 °F 86% 29.84 in 10.0 mi SSE 10.4 mph - N/A   Overcast
6:15 AM 38.5 °F 31.6 °F 34.7 °F 86% 29.84 in 10.0 mi SSE 10.4 mph - N/A   Overcast
6:34 AM 38.3 °F 31.9 °F 35.1 °F 88% 29.85 in 10.0 mi SSE 9.2 mph - N/A Rain Light Rain
6:55 AM 38.3 °F 32.5 °F 35.6 °F 90% 29.85 in 7.0 mi South 8.1 mph - N/A Rain Light Rain
7:15 AM 38.7 °F 32.4 °F 36.3 °F 91% 29.85 in 7.0 mi South 9.2 mph - N/A Rain Light Rain
7:34 AM 38.3 °F 33.2 °F 36.7 °F 94% 29.84 in 7.0 mi SSE 6.9 mph - N/A Rain Light Rain
8:35 AM 39.2 °F 34.2 °F 38.3 °F 97% 29.83 in 4.0 mi South 6.9 mph - N/A Rain Light Rain
8:54 AM 38.5 °F 34.1 °F 37.9 °F 98% 29.83 in 4.0 mi South 5.8 mph - N/A Rain Light Rain
9:15 AM 38.3 °F 33.9 °F 37.9 °F 99% 29.84 in 4.0 mi South 5.8 mph - N/A Rain Light Rain
9:35 AM 38.1 °F 35.7 °F 37.8 °F 99% 29.84 in 3.0 mi SSE 3.5 mph - N/A Rain Light Rain
9:54 AM 38.7 °F 33.6 °F 38.5 °F 99% 29.85 in 3.0 mi South 6.9 mph - N/A Rain Rain
10:15 AM 39.2 °F 33.6 °F 38.3 °F 97% 29.85 in 4.0 mi South 8.1 mph - N/A Rain Light Rain
10:35 AM 38.7 °F 32.4 °F 37.9 °F 97% 29.84 in 4.0 mi South 9.2 mph - N/A   Light Drizzle
10:54 AM 38.5 °F 33.4 °F 38.1 °F 99% 29.83 in 4.0 mi South 6.9 mph - N/A   Drizzle
11:15 AM 38.5 °F 33.4 °F 38.3 °F 99% 29.81 in 4.0 mi SSE 6.9 mph - N/A   Drizzle
11:35 AM 38.8 °F 36.5 °F 38.7 °F 99% 29.82 in 4.0 mi South 3.5 mph - N/A   Light Drizzle
11:54 AM 39.6 °F - 39.2 °F 99% 29.82 in 4.0 mi Calm Calm - N/A   Drizzle
12:15 PM 38.3 °F 34.8 °F 38.3 °F 100% 29.84 in 2.5 mi NW 4.6 mph - N/A Rain Rain
12:34 PM 36.7 °F 31.2 °F 36.7 °F 100% 29.87 in 1.8 mi West 6.9 mph - N/A Rain Light Rain
12:54 PM 36.5 °F 29.7 °F 36.5 °F 100% 29.88 in 1.8 mi West 9.2 mph - N/A Rain Rain
1:14 PM 36.0 °F 30.3 °F 36.0 °F 100% 29.89 in 1.2 mi West 6.9 mph - N/A Rain Rain
1:34 PM 36.1 °F 31.4 °F 36.1 °F 100% 29.89 in 0.8 mi WNW 5.8 mph - N/A   Light Drizzle
1:55 PM 35.8 °F - 35.8 °F 100% 29.88 in 0.2 mi Calm Calm - N/A Fog Fog
2:14 PM 36.7 °F - 36.7 °F 100% 29.89 in 0.2 mi Calm Calm - N/A Fog Fog
2:34 PM 37.0 °F - 37.0 °F 100% 29.88 in 0.2 mi Calm Calm - N/A Fog Fog
2:55 PM 36.1 °F - 36.1 °F 100% 29.88 in 0.2 mi Calm Calm - N/A Fog Fog
3:14 PM 35.8 °F 33.0 °F 35.8 °F 100% 29.87 in 0.2 mi North 3.5 mph - N/A Fog Fog
3:34 PM 35.8 °F 31.9 °F 35.8 °F 100% 29.87 in 0.5 mi NNE 4.6 mph - N/A Fog Fog
3:55 PM 35.8 °F 33.0 °F 35.8 °F 100% 29.89 in 2.0 mi North 3.5 mph - N/A   Overcast
4:14 PM 35.6 °F 32.8 °F 35.6 °F 100% 29.91 in 1.8 mi NNW 3.5 mph - N/A   Overcast
4:35 PM 35.4 °F - 35.4 °F 100% 29.92 in 0.8 mi Calm Calm - N/A   Overcast
4:54 PM 35.4 °F 32.6 °F 35.4 °F 100% 29.92 in 1.0 mi NNW 3.5 mph - N/A   Overcast
5:14 PM 34.7 °F 29.6 °F 34.7 °F 100% 29.90 in 0.2 mi North 5.8 mph - N/A Fog Fog
5:35 PM 34.2 °F 26.2 °F 34.2 °F 100% 29.87 in 0.2 mi North 10.4 mph - N/A Rain Light Rain
5:54 PM 34.9 °F 28.3 °F 34.9 °F 100% 29.90 in 0.8 mi North 8.1 mph - N/A Rain Light Rain
6:15 PM 35.6 °F 29.2 °F 35.6 °F 100% 29.89 in 3.0 mi NNE 8.1 mph - N/A Rain Light Rain
6:35 PM 35.6 °F 30.7 °F 35.6 °F 100% 29.89 in 5.0 mi NNE 5.8 mph - N/A Rain Light Rain
6:54 PM 35.2 °F 31.2 °F 35.2 °F 100% 29.89 in 4.0 mi NE 4.6 mph - N/A   Drizzle
7:15 PM 35.1 °F 31.0 °F 35.1 °F 100% 29.90 in 2.0 mi NE 4.6 mph - N/A Rain Rain
7:35 PM 34.7 °F 28.8 °F 34.7 °F 100% 29.88 in 2.5 mi NNE 6.9 mph - N/A Rain Light Rain
7:54 PM 35.2 °F 31.2 °F 35.2 °F 100% 29.90 in 4.0 mi ENE 4.6 mph - N/A Rain Rain
8:15 PM 35.1 °F 31.0 °F 35.1 °F 100% 29.90 in 3.0 mi NE 4.6 mph - N/A Rain Rain
8:34 PM 34.9 °F 32.0 °F 34.9 °F 100% 29.90 in 2.5 mi North 3.5 mph - N/A Rain Rain
8:55 PM 35.1 °F - 35.1 °F 100% 29.90 in 4.0 mi Calm Calm - N/A Rain Light Rain
9:15 PM 35.8 °F 28.8 °F 35.8 °F 100% 29.91 in 10.0 mi ENE 9.2 mph - N/A Rain Light Rain
9:34 PM 35.6 °F 29.2 °F 35.6 °F 100% 29.90 in 5.0 mi ENE 8.1 mph - N/A Rain Light Rain
9:55 PM 35.6 °F 28.6 °F 35.6 °F 100% 29.89 in 5.0 mi NE 9.2 mph - N/A Rain Light Rain
10:14 PM 35.2 °F 29.5 °F 35.2 °F 100% 29.89 in 5.0 mi ENE 6.9 mph - N/A Rain Rain
10:34 PM 35.1 °F 30.1 °F 35.1 °F 100% 29.89 in 7.0 mi ENE 5.8 mph - N/A Rain Light Rain
10:55 PM 34.9 °F 27.7 °F 34.9 °F 100% 29.87 in 5.0 mi NE 9.2 mph - N/A Rain Light Rain
11:14 PM 34.7 °F 28.8 °F 34.7 °F 100% 29.85 in 5.0 mi NE 6.9 mph - N/A Rain Light Rain
11:35 PM 34.7 °F 27.5 °F 34.7 °F 100% 29.85 in 5.0 mi East 9.2 mph - N/A Rain Light Rain
11:54 PM 34.7 °F 26.4 °F 34.7 °F 100% 29.83 in 10.0 mi ENE 11.5 mph - N/A Rain Rain
12:15 AM 34.7 °F 25.9 °F 34.7 °F 100% 29.82 in 4.0 mi East 12.7 mph - N/A Rain Light Rain
12:35 AM 34.9 °F 26.2 °F 34.9 °F 100% 29.80 in 5.0 mi East 12.7 mph - N/A Rain Light Rain
12:54 AM 34.9 °F 27.1 °F 34.9 °F 100% 29.79 in 4.0 mi East 10.4 mph - N/A Rain Rain